Regional Weather Roundup
Issued by NWS

Home | Current Version | Previous Version | Text Only | Print | Product List | Glossary Off
Versions: 1 2 3 4 5 6 7 8 9 10 11 12 13 14 15 16 17 18 19 20 21 22 23 24 25 26 27 28 29 30 31 32 33 34 35 36 37 38 39 40 41 42 43 44 45 46 47 48 49 50

000
ASUS43 KDMX 281107
RWRIA

WEATHER ROUNDUP FOR IOWA
NATIONAL WEATHER SERVICE DES MOINES IA
600 AM CDT MON JUL 28 2014

NOTE: "FAIR" INDICATES FEW OR NO CLOUDS BELOW 12,000 FEET WITH NO
SIGNIFICANT WEATHER AND/OR OBSTRUCTIONS TO VISIBILITY.

* - THESE STATIONS ARE NOT NWS STATIONS...THUS NOT UNDER NWS
QUALITY CONTROL.  THEY ALSO DO NOT REPORT WEATHER SUCH
AS PRECIPITATION OR FOG.

IAZ001>003-012>014-020>022-031>034-043>046-281200-
   NORTHWEST IOWA

CITY           SKY/WX    TMP DP  RH WIND       PRES   REMARKS
CARROLL *      CLEAR     57  55  94 NW8       30.20R
CHEROKEE *     MOCLDY    55  55 100 N6        30.23R
DENISON *      CLEAR     55  55 100 CALM      30.20S
LE MARS *      CLOUDY    59  55  88 NW8       30.24S
ORANGE CITY *  CLEAR     59  54  82 NW7       30.24R
SHELDON *      CLOUDY    57  55  94 NW7       30.23R
SIOUX CITY     CLEAR     56  53  90 CALM      30.24R
SPENCER        CLOUDY    57  55  93 NW7       30.22R
STORM LAKE *   MOCLDY    55  55 100 NW8       30.22S
$$

IAZ055>058-069>071-079>083-090>094-281200-
   SOUTHWEST IOWA

CITY           SKY/WX    TMP DP  RH WIND       PRES   REMARKS
ATLANTIC *     MOCLDY    57  55  94 N5        30.20R
AUDUBON *      MOCLDY    59  55  88 NW7       30.21R
CLARINDA *     CLEAR     59  55  88 NW5       30.21R
COUNCIL BLFS *   N/A     57  57 100 CALM      30.20S
CRESTON *      CLOUDY    57  55  94 NW7       30.18R
HARLAN  *      CLEAR     55  55 100 N6        30.24S
LAMONI         CLOUDY    60  57  89 N12       30.16R
RED OAK *      CLEAR     57  55  94 N8        30.20S
SHENANDOAH *   CLEAR     59  55  88 N6        30.21R
$$

IAZ047>049-059>061-072>074-084-281200-
   CENTRAL IOWA

CITY           SKY/WX    TMP DP  RH WIND       PRES   REMARKS
AMES           PTCLDY    60  58  92 N10       30.17R
ANKENY *       CLEAR     61  59  94 N7        30.16R
CHARITON *     CLEAR     59  59 100 NW7       30.15R
DES MOINES     PTCLDY    61  58  90 N6        30.16R
GRINNELL*      CLEAR     57  55  94 N5        30.16R
KNOXVILLE *    CLEAR     63  59  88 N9        30.13S
MARSHALLTOWN   CLEAR     57  55  93 NW5       30.15R
PELLA *        CLEAR     59  59 100 N6        30.15R
PERRY *          N/A     57  57 100 NW5       30.18S
$$

IAZ004>006-015-016-023>025-035-036-281200-
   NORTH CENTRAL IOWA

CITY           SKY/WX    TMP DP  RH WIND       PRES   REMARKS
ALGONA *       CLOUDY    61  59  94 N5        30.20S
CLARION *      CLOUDY    57  57 100 N5        30.19R
ESTHERVILLE    CLOUDY    59  58  96 N8        30.21R
FORT DODGE *   CLOUDY    57  55  94 NW6       30.20R
MASON CITY     CLOUDY    58  57  97 NW5       30.20R
FOREST CITY *  CLOUDY    59  59 100 CALM      30.19R
IOWA FALLS *   MOCLDY    55  54  94 N5        30.19R
$$

IAZ007>011-017>019-026>030-037>042-050>054-066-281200-
   NORTHEAST IOWA

CITY           SKY/WX    TMP DP  RH WIND       PRES   REMARKS
CEDAR RAPIDS   CLEAR     58  54  86 N8        30.12R
CHARLES CITY * CLOUDY    57  55  94 NW6       30.17R
CLINTON *      CLEAR     55  52  88 N9        30.10S
DECORAH *      CLEAR     54  52  94 NW5       30.15R
DUBUQUE        CLEAR     56  53  90 N10       30.11R
MONTICELLO *   CLEAR     57  55  94 N8        30.12R
OELWEIN *      CLEAR     55  52  88 N6        30.16R
WATERLOO       PTCLDY    56  53  90 N6        30.14R
$$

IAZ064-065-067-068-078-281200-
   EAST CENTRAL IOWA

CITY           SKY/WX    TMP DP  RH WIND       PRES   REMARKS
DAVENPORT      CLEAR     58  54  86 N10       30.09R
IOWA CITY      PTCLDY    62  58  86 N10       30.12R
MT. PLEASANT * MOCLDY    63  61  94 N7G20     30.10R
MUSCATINE *    PTCLDY    61  59  94 N7        30.09R
QUAD CITIES    PTCLDY    62  53  72 N6        30.07R
$$

IAZ062-063-075>077-085>089-095>099-281200-
   SOUTHEAST IOWA

CITY           SKY/WX    TMP DP  RH WIND       PRES   REMARKS
BURLINGTON     MOCLDY    63  60  90 N9        30.07R
FAIRFIELD *    PTCLDY    61  59  94 N9        30.11R
FORT MADISON * CLEAR     63  61  94 N5        30.09R
KEOKUK *       MOCLDY    63  61  94 NW6       30.08R
OSKALOOSA *      N/A     59  59 100 N7        30.13R
CENTERVILLE *  PTCLDY    61  61 100 NW8       30.14R
OTTUMWA        CLEAR     60  58  92 NW9       30.12R
WASHINGTON *   MOCLDY    61  59  94 N10       30.11R
$$

ABBREVIATIONS USED IN REMARKS
   TC - TEMPERATURES IN CELSIUS
  WCI - WIND CHILL INDEX
   HX - HEAT INDEX
  VSB - VISIBILITY
$$



USA.gov is the U.S. government's official web portal to all federal, state and local government web resources and services.